Temperature
16 16 16 16 16 16 16 16 15 15 15 15 15 15 15 15 15 15 15 15 15 15 15 15 14 14 14 14 14 14 14 14 14 14 14 14 14 14
16 16 16 16 16 16 16 16 15 15 15 15 15 15 15 15 15 15 15 15 15 14 14 14 14 14 14 14 14 14 14 14 14 14 14 14 14 14
16 16 16 16 16 15 15 15 15 15 15 15 15 15 15 15 15 15 14 14 14 14 14 14 14 14 14 14 14 14 14 14 14 14 14 14 14 14
16 16 16 15 15 15 15 15 15 15 15 15 14 14 14 14 14 14 14 14 14 14 14 14 14 14 14 14 14 14 13 13 13 13 13 14 14 14
15 15 15 15 15 15 15 15 15 14 14 14 14 14 14 14 14 14 14 14 14 14 14 14 14 14 13 13 13 13 13 13 13 13 13 13 13 13
15 15 15 15 15 15 14 14 14 14 14 14 14 14 14 14 14 14 14 14 14 14 14 14 14 13 13 13 13 13 13 13 13 13 13 13 13 13
15 15 15 15 14 14 14 14 14 14 14 14 14 14 14 14 14 14 14 14 14 13 13 13 13 13 13 13 13 13 13 13 13 13 13 13 13 13
15 15 15 14 14 14 14 14 14 14 14 14 14 14 14 13 13 13 13 13 13 13 13 13 13 13 13 13 13 13 13 13 13 13 13 13 13 13
14 14 14 14 14 14 14 14 14 14 13 13 13 14 13 13 13 13 13 13 13 13 13 13 13 13 13 13 13 13 13 13 13 13 13 12 12 12
14 14 14 14 14 14 14 14 14 14 14 13 13 13 13 13 13 13 13 13 13 13 13 13 13 13 13 13 13 13 13 12 12 12 12 12 12 12
14 14 14 13 13 13 13 13 13 13 13 13 13 13 13 13 12 12 12 12 12 13 13 12 13 13 12 13 13 12 12 12 12 12 12 12 12 12
14 13 13 13 13 13 13 13 13 13 13 13 13 13 12 12 12 12 12 12 12 12 12 12 12 12 12 12 12 12 12 12 12 12 12 12 12 12
13 13 13 13 13 13 12 12 12 12 12 12 12 12 12 12 12 12 12 12 12 12 12 12 12 12 12 12 12 12 12 12 12 12 12 12 12 12
13 13 13 12 12 12 12 12 12 12 12 12 12 12 12 12 12 12 12 12 12 12 12 12 12 12 12 12 12 12 12 12 12 12 12 11 11 11
13 12 12 12 12 12 12 12 12 11 11 11 11 11 11 12 11 11 11 11 11 11 11 11 11 11 11 11 11 12 11 11 11 11 11 11 11 11
12 12 12 12 12 12 11 11 11 11 11 11 11 11 11 11 11 11 11 11 11 11 11 11 11 11 11 11 11 11 11 11 11 11 11 11 11 11
12 12 12 12 12 11 11 11 11 11 11 11 11 11 11 11 11 11 11 11 11 11 11 11 11 11 11 11 11 11 11 11 11 11 11 11 11 11
11 11 11 11 11 11 11 11 11 11 11 11 11 10 11 11 11 10 10 10 10 10 11 11 11 11 11 11 11 11 11 11 11 11 10 10 10 11
11 11 11 11 11 11 11 11 10 10 10 10 10 10 10 10 10 10 10 10 10 10 10 10 10 10 10 10 10 11 10 10 10 10 10 10 10 10
11 11 10 10 10 10 10 10 10 10 10 10 10 10 10 10 10 10 10 10 10 10 10 10 10 10 10 10 10 10 10 10 10 10 10 10 10 10
11 10 10 10 10 10 10 10 10 9 9 10 9 9 9 9 9 9 10 10 10 10 10 10 10 10 10 10 10 10 10 10 10 10 10 9 9 9
10 10 10 10 10 10 10 9 9 9 9 9 9 9 9 9 9 9 9 9 9 10 10 10 10 10 10 10 10 10 10 9 9 9 9 9 9 9
10 10 10 9 9 9 9 9 9 9 9 9 9 9 9 9 9 9 9 9 9 9 9 9 9 9 9 9 9 9 9 9 9 9 9 9 9 9
Wind_Speed
2 2 1 1 1 1 1 2 3 2 2 2 1 2 2 2 3 3 3 3 4 3 3 3 3 3 3 2 2 2 2 2 3 3 3 3 4 4
1 1 0 1 0 1 1 1 2 3 2 2 2 2 2 1 2 3 3 4 4 4 4 4 4 4 3 3 3 3 3 3 3 3 3 3 4 4
1 1 1 0 0 0 1 1 1 2 3 2 2 1 1 1 1 1 3 3 3 4 5 5 5 5 5 4 3 3 3 3 3 3 3 3 4 4
2 1 1 1 1 0 1 1 1 2 2 2 2 1 1 1 1 1 1 2 3 4 5 5 5 5 5 5 5 4 4 4 3 3 3 4 4 4
3 3 2 2 2 1 1 1 1 1 2 2 2 1 1 1 0 1 1 1 2 3 4 5 5 5 6 6 6 6 5 5 4 4 3 3 3 3
3 3 3 3 4 3 2 3 2 1 1 1 1 1 1 1 0 1 1 1 2 2 2 3 4 5 5 6 7 7 6 6 5 5 4 4 3 3
3 3 4 5 5 4 3 3 3 2 2 2 2 1 1 1 2 2 2 2 2 1 1 2 2 2 3 5 6 7 7 7 6 5 5 5 4 4
3 3 3 4 5 5 5 5 5 5 4 4 3 3 4 3 2 2 2 1 2 1 2 2 1 3 3 4 5 6 7 7 6 6 5 5 5 5
3 3 3 3 3 3 4 4 5 6 7 6 6 6 5 5 4 3 3 3 4 2 2 3 2 3 4 4 5 6 6 6 6 6 6 5 6 5
3 3 3 3 3 2 3 3 4 5 5 5 6 6 6 5 5 4 4 3 2 2 2 3 3 3 3 4 4 5 5 5 6 6 6 6 6 6
3 3 3 4 4 3 2 3 4 4 5 5 5 4 4 4 4 2 2 2 3 3 3 2 2 2 3 3 4 4 5 6 6 5 6 6 6 6
3 3 4 4 4 3 3 3 4 4 3 3 2 2 2 3 5 5 4 4 3 3 3 3 2 1 2 2 2 2 3 4 5 5 6 6 6 4
3 3 3 4 4 4 4 4 5 4 3 2 3 3 2 2 3 4 5 5 4 4 3 3 3 2 3 2 2 2 2 2 3 3 5 6 6 6
3 3 3 3 3 3 2 2 3 2 1 2 2 3 3 3 4 4 5 6 6 6 5 5 4 4 3 3 3 2 2 2 2 3 3 4 5 6
3 3 3 3 2 1 2 1 1 1 1 2 3 4 4 4 3 3 2 3 4 5 5 6 5 4 4 4 3 3 2 2 3 3 3 3 3 3
1 1 1 1 0 0 1 1 1 1 2 3 3 4 3 3 2 2 2 2 2 3 3 4 5 6 5 5 4 4 4 3 3 4 3 3 4 5
1 0 1 1 1 1 1 1 1 1 2 2 3 3 3 2 2 2 2 2 2 3 3 2 2 3 5 4 4 5 4 4 4 3 3 3 3 4
2 1 2 2 2 2 2 2 2 2 3 3 3 3 3 3 2 2 2 2 3 4 3 2 1 1 1 3 5 5 4 4 4 4 4 4 4 4
2 2 3 3 3 3 3 3 3 3 3 3 3 3 3 3 3 3 2 3 3 4 4 3 2 3 4 5 3 4 5 4 3 3 4 4 5 4
2 3 3 3 4 3 3 3 3 3 3 3 3 3 3 3 3 3 3 4 4 4 4 3 4 5 6 5 3 3 5 5 4 4 4 3 3 3
3 3 3 3 3 3 3 3 3 3 3 3 3 3 3 3 4 4 4 4 4 4 5 5 5 5 3 2 2 3 3 5 5 4 4 3 3 3
3 3 3 3 3 3 3 3 3 3 4 4 4 4 4 4 4 5 4 4 5 5 5 4 2 2 2 4 4 4 3 2 2 4 4 5 4 4
4 4 4 4 4 3 3 4 4 4 4 4 4 4 4 4 4 5 5 5 4 4 4 3 2 2 3 4 4 3 4 3 2 2 2 4 6 7
Wind_Direction
188 185 200 230 214 215 200 198 189 218 254 261 263 270 264 238 228 212 216 213 207 210 222 201 197 209 222 230 241 246 256 268 281 283 280 275 266 260
182 150 214 254 232 187 194 202 204 208 234 243 240 265 274 266 236 223 227 229 221 215 224 222 214 221 229 234 241 247 254 264 275 280 276 271 267 262
220 177 245 239 141 196 152 153 178 190 225 264 256 275 254 278 293 240 237 241 246 233 233 235 228 228 230 231 236 240 244 250 260 274 275 269 268 263
227 209 242 197 176 207 164 186 207 202 198 245 266 269 258 262 275 264 278 257 252 245 236 234 232 231 232 234 236 238 243 249 254 265 272 269 267 262
222 218 231 202 220 228 210 211 229 222 200 206 255 263 274 292 291 279 296 293 268 262 243 239 240 237 238 237 238 242 243 243 244 252 264 263 262 262
231 230 231 220 225 225 223 217 210 194 186 206 243 287 272 277 220 259 290 285 274 288 276 254 247 241 241 241 242 243 240 238 239 241 245 250 252 256
251 247 243 235 231 225 227 217 203 202 207 217 241 257 261 250 235 230 243 264 259 262 265 263 253 249 251 249 244 242 238 236 234 231 234 239 243 242
255 266 261 249 248 239 235 222 203 203 215 220 231 236 237 233 236 227 218 228 263 248 230 261 243 255 260 250 248 238 233 229 225 223 227 228 230 228
255 266 276 273 251 250 251 240 231 223 215 214 228 236 232 221 211 225 223 223 239 235 207 253 247 254 266 260 250 239 234 230 226 223 223 223 219 219
247 247 254 268 261 246 253 259 257 249 236 226 231 238 239 224 212 217 226 237 262 234 200 241 250 252 263 265 253 235 228 223 221 221 220 221 216 213
255 254 249 251 254 226 220 255 274 274 260 242 234 237 226 211 197 187 200 222 262 251 210 223 246 250 259 261 256 235 228 225 222 222 221 218 216 211
275 273 255 247 245 216 213 229 258 272 277 276 270 269 248 212 195 199 205 217 245 255 214 206 231 230 266 258 256 244 232 234 228 228 226 218 211 209
268 279 275 258 242 234 223 234 251 261 266 261 261 263 263 245 225 218 212 214 228 246 220 195 217 215 232 260 272 256 236 234 230 229 222 217 211 204
252 264 267 262 251 245 236 246 246 248 262 262 265 267 266 263 259 250 232 227 232 242 231 205 213 211 218 243 261 259 240 235 228 232 217 209 213 216
255 257 261 264 262 261 255 240 218 219 232 248 260 266 261 261 265 272 271 253 255 252 237 220 216 215 215 230 240 238 239 243 222 218 213 210 210 204
275 287 273 255 205 291 297 274 246 237 233 249 265 274 275 269 263 262 259 262 273 281 265 233 220 214 224 231 233 242 235 229 219 216 210 214 214 210
209 267 286 313 325 308 297 284 272 260 256 258 264 278 280 274 276 272 242 230 246 263 275 278 239 218 227 226 231 239 240 240 233 215 211 229 232 224
159 216 243 239 240 251 262 277 270 259 257 257 260 266 271 271 272 275 251 240 247 257 261 266 248 227 240 252 229 236 240 241 234 214 211 225 242 237
181 238 246 244 245 248 251 252 260 266 263 256 254 257 262 262 257 257 253 255 260 262 265 258 234 222 238 257 249 217 228 239 227 222 220 226 240 244
228 243 250 251 251 251 253 255 260 264 257 259 259 259 257 255 255 255 251 255 259 263 267 257 236 229 232 245 250 246 226 226 225 227 231 236 248 261
246 254 256 255 257 255 252 252 252 255 259 254 257 261 259 257 259 259 256 253 255 262 262 262 257 243 235 212 230 250 250 233 224 223 217 223 239 240
259 258 259 254 254 254 251 248 252 256 258 255 257 260 259 253 256 261 258 256 255 258 261 269 270 225 211 224 241 250 257 264 247 227 225 224 225 227
256 258 259 256 255 255 253 251 254 258 256 254 258 263 261 258 255 255 255 255 260 264 266 266 258 243 238 234 238 246 251 254 241 222 254 258 246 248
Height
1526 1526 1526 1526 1526 1526 1526 1526 1527 1525 1525 1525 1526 1526 1526 1526 1526 1525 1526 1526 1526 1526 1526 1526 1527 1527 1528 1528 1528 1528 1527 1527 1527 1527 1527 1527 1528 1528
1524 1524 1524 1524 1524 1524 1524 1524 1524 1524 1523 1523 1524 1524 1524 1524 1524 1524 1524 1524 1524 1524 1525 1525 1525 1526 1526 1526 1526 1526 1525 1525 1525 1525 1524 1524 1525 1525
1523 1523 1523 1523 1522 1522 1522 1522 1522 1522 1521 1521 1522 1522 1522 1522 1522 1522 1522 1522 1522 1523 1523 1523 1524 1524 1524 1524 1524 1524 1524 1523 1523 1523 1522 1522 1522 1522
1521 1521 1521 1521 1521 1520 1520 1520 1520 1520 1519 1519 1519 1519 1520 1520 1520 1520 1520 1520 1521 1521 1521 1521 1521 1522 1522 1522 1522 1522 1522 1521 1521 1521 1520 1520 1520 1520
1519 1519 1519 1519 1519 1518 1518 1517 1517 1517 1517 1517 1517 1517 1517 1517 1517 1517 1517 1518 1518 1519 1519 1518 1519 1519 1519 1520 1520 1520 1519 1519 1519 1519 1518 1518 1518 1518
1517 1517 1517 1517 1516 1516 1516 1515 1515 1515 1515 1515 1514 1514 1515 1515 1515 1514 1515 1515 1516 1516 1516 1516 1516 1516 1517 1517 1517 1517 1517 1517 1517 1517 1517 1516 1516 1516
1514 1514 1514 1514 1514 1513 1513 1513 1513 1512 1512 1512 1512 1512 1512 1512 1512 1512 1512 1512 1513 1513 1513 1513 1513 1513 1514 1515 1515 1515 1515 1515 1515 1515 1514 1514 1514 1514
1511 1511 1511 1511 1511 1511 1511 1510 1510 1510 1509 1509 1509 1508 1508 1508 1509 1509 1509 1509 1509 1511 1510 1510 1510 1510 1511 1511 1512 1512 1512 1512 1512 1512 1512 1512 1512 1512
1508 1508 1508 1508 1508 1507 1507 1507 1507 1506 1507 1506 1506 1505 1505 1505 1505 1505 1505 1506 1506 1507 1507 1507 1507 1507 1508 1508 1509 1509 1510 1510 1510 1510 1510 1510 1510 1510
1504 1504 1504 1503 1504 1504 1503 1503 1503 1503 1503 1502 1502 1502 1502 1502 1502 1503 1503 1503 1503 1503 1504 1503 1503 1504 1504 1505 1505 1506 1506 1507 1507 1507 1507 1508 1508 1508
1500 1500 1500 1500 1500 1500 1500 1499 1499 1499 1499 1499 1498 1498 1498 1498 1499 1499 1499 1499 1499 1499 1500 1500 1500 1500 1501 1501 1502 1502 1503 1503 1504 1504 1504 1505 1505 1505
1496 1496 1496 1496 1496 1496 1496 1496 1495 1495 1495 1495 1495 1494 1494 1494 1495 1495 1495 1495 1495 1495 1496 1497 1497 1497 1497 1497 1498 1499 1499 1500 1500 1501 1501 1501 1502 1502
1492 1492 1492 1492 1493 1493 1493 1492 1492 1492 1491 1491 1491 1491 1491 1491 1491 1491 1491 1492 1492 1492 1493 1493 1493 1494 1494 1494 1494 1495 1495 1496 1496 1497 1497 1498 1498 1499
1489 1489 1489 1489 1489 1490 1489 1489 1489 1489 1488 1488 1487 1487 1487 1487 1487 1487 1488 1488 1488 1488 1489 1489 1489 1490 1490 1490 1491 1491 1492 1492 1492 1493 1494 1494 1495 1495
1486 1486 1486 1486 1486 1486 1486 1486 1485 1485 1485 1484 1484 1483 1483 1483 1483 1483 1483 1484 1484 1484 1484 1485 1485 1486 1486 1486 1486 1487 1488 1488 1489 1489 1490 1490 1491 1491
1483 1483 1483 1483 1483 1482 1482 1482 1482 1482 1481 1481 1481 1480 1480 1480 1480 1479 1479 1479 1480 1480 1481 1481 1481 1482 1482 1482 1483 1483 1484 1484 1485 1486 1486 1487 1487 1488
1480 1480 1480 1480 1479 1479 1479 1479 1478 1478 1478 1478 1477 1477 1476 1476 1476 1476 1476 1476 1476 1476 1477 1477 1478 1478 1478 1479 1479 1479 1479 1480 1481 1481 1482 1482 1483 1484
1478 1477 1477 1476 1476 1476 1476 1476 1475 1475 1475 1474 1474 1473 1473 1472 1472 1472 1472 1472 1472 1472 1473 1473 1473 1473 1474 1474 1475 1475 1475 1476 1477 1477 1478 1478 1478 1479
1474 1474 1474 1473 1473 1473 1473 1472 1472 1472 1472 1471 1470 1470 1470 1469 1469 1469 1469 1469 1469 1469 1469 1470 1470 1470 1470 1470 1470 1471 1471 1472 1472 1473 1473 1473 1474 1475
1471 1471 1470 1470 1470 1469 1469 1469 1469 1468 1468 1468 1467 1467 1466 1466 1465 1465 1465 1465 1465 1465 1465 1465 1465 1465 1466 1466 1466 1467 1467 1467 1468 1468 1469 1469 1469 1470
1468 1467 1467 1466 1466 1466 1466 1465 1465 1465 1464 1464 1464 1463 1463 1462 1462 1461 1461 1461 1462 1461 1461 1461 1462 1462 1462 1462 1462 1462 1463 1464 1464 1464 1465 1465 1465 1466
1464 1464 1463 1463 1462 1462 1462 1461 1461 1461 1460 1460 1460 1460 1459 1459 1458 1458 1458 1458 1458 1458 1458 1458 1458 1458 1458 1458 1458 1458 1459 1459 1460 1461 1461 1462 1462 1462
1461 1460 1460 1459 1458 1458 1457 1457 1457 1457 1457 1456 1456 1456 1456 1455 1455 1454 1454 1454 1454 1454 1454 1454 1454 1454 1454 1455 1455 1455 1455 1455 1456 1456 1457 1458 1458 1459